2024-110C (60014 NORAD) Tracking and Keplerian Element Data

This shows tracking and keplerian element data for the satellite.

Feedback or suggestion? Click here.




ElementValue
Catalog60014
Name2024-110C
Epoch Orbit30
Epoch Day160.24496003
Epoch Year2024
RAAN246.9485
Inclination97.6021
Eccentricity0.0012318
Argument of Perigee290.4614
Mean Anonmoly69.529
Mean Motion15.06402422
Decay Rate5.043E-05
L11 60014U 24110C 24160.24496003 .00005043 00000+0 34592-3 0 9997
L22 60014 97.6021 246.9485 0012318 290.4614 69.5290 15.06402422 307



Live tracking and technical data element details for 2024-110C (NORAD 60014). 2024-110C can be tracked NOW for your location showing map with azimuth and elevation plus other details from your city location.







IsCatalogInMostPopularTable: catalog: 60014, numindb: 33
Update: records affected: 1



GetName: 60014 2024-110C

Hit Count: updated at: Thu, 25 Jul 2024 01:09:54 GMT